Regional Weather Roundup
Issued by NWS Goodland, KS

Home | Current Version | Previous Version | Graphics & Text | Print | Product List | Glossary On
Versions: 1 2 3 4 5 6 7 8 9 10 11 12 13 14 15 16 17 18 19 20 21 22 23 24 25 26 27 28 29 30 31 32 33 34 35 36 37 38 39 40 41 42 43 44 45 46 47 48 49 50
000
ASUS43 KGLD 230708
RWRGLD

GOODLAND FORECAST AREA HOURLY WEATHER ROUNDUP
NATIONAL WEATHER SERVICE GOODLAND KS
100 AM MDT WED JUL 23 2014

...OFFICIAL OBSERVATIONS...

CITY           SKY/WX    TMP DP  RH WIND       PRES   REMARKS
GOODLAND KS    CLEAR     72  68  87 E10       30.29R
HILL CITY KS   CLEAR     76  68  76 NE9       30.22R
IMPERIAL NEB   CLEAR     72  64  76 E8        30.30S
MCCOOK NEB     CLEAR     72  68  87 E13       30.26S
AKRON CO       PTCLDY    69  61  75 E13       30.33R
BURLINGTON CO  CLEAR     69  65  86 NE6       30.30R
LIMON CO       CLEAR     67  56  67 S5        30.36R
$$

...UNOFFICIAL OBSERVATIONS...

CITY           SKY/WX    TMP DP  RH WIND       PRES   REMARKS
COLBY KS       CLEAR     73  72  94 E10G16    30.28R FOG
GOVE KS          N/A     77  32  19 MISG        N/A
LENORA KS        N/A     74  32  21 MISG        N/A
NORTON KS      CLEAR     73  64  73 NE7       30.23S
OBERLIN KS     FAIR      73  66  78 NE8       30.25R
SHARON SPRINGS   N/A     71  65  83 S7          N/A
ST FRANCIS KS  CLEAR     72  63  73 E8        30.28R
KIT CARSON CO    N/A     73  60  65 CALM        N/A
YUMA CO          N/A     70  61  72 E13         N/A
$$


USA.gov is the U.S. government's official web portal to all federal, state and local government web resources and services.